Location: Votelez
(50.0000°N, 15.0000°E)
Time: 20:53:57
(UTC+01:00)

ARIANE 6 FM1 Upper Stage - Pass Details

Date: 19 February 2026
Orbit: 523 x 607 km, 62.0° (Epoch: 13 March)

Event Time Altitude Azimuth Distance (km) Brightness Sun altitude
Rises 18:37:47 0° 310° (NW) 2,660 6.9 -12.3°
Reaches altitude 10° 18:40:03 10° 303° (WNW) 1,768 6.1 -12.7°
Maximum altitude 18:43:47 41° 233° (SW) 767 3.8 -13.3°
Drops below altitude 10° 18:47:32 10° 162° (SSE) 1,772 5.0 -13.9°
Sets 18:49:48 0° 155° (SSE) 2,667 5.9 -14.2°
Enters shadow 18:49:56 - 155° (SSE) 2,718 5.9 -14.3°
